sat.trackr.live / text

‹ back to catalog

COSMOS 2547 (705K)

NORAD 46805 · 2020-075A

PAYLOAD ACTIVE UNKNOWN

§ Identity

Operator
Country
CIS
Launch date
2020-10-25
Launch site
PLMSC
Launch vehicle
Mass (kg)
RCS (m²)

Purposes: earth_obs, nav

External: N2YO · Heavens-Above · Gunter

§ Orbital elements

Epoch: 2026-09-19T06:24:03.050208Z

Period
675.74 min
Inclination
64.6006°
Eccentricity
0.0008330
Mean motion
2.13099872 rev/d
Perigee alt
19,108.8 km
Apogee alt
19,151.3 km
Semi-major
25,508.2 km
B*
0.0000e+0
RAAN
189.3379°
Arg perigee
235.6169°
Mean anomaly
124.3172°
Rev number
4,591

§ Raw data

COSMOS 2547 (705K)1 46805U 20075A   26262.26670197 -.00000008  00000+0  00000+0 0  99902 46805  64.6006 189.3379 0008330 235.6169 124.3172  2.13099872 45913

JSON: /api/v1/satellites/46805 · /tle

For live sub-satellite position, see the globe view (requires WebGL).

§ Visibility from observer

Set your observer location to see the next 7 days of passes ≥ 10°. The values pass through the URL so the page stays shareable.

No JS? Fill the form by hand. The geolocation button needs JavaScript.